Regional Weather Roundup
Issued by NWS

Home | Current Version | Previous Version | Text Only | Print | Product List | Glossary On
Versions: 1 2 3 4 5 6 7 8 9 10 11 12 13 14 15 16 17 18 19 20 21 22 23 24 25 26 27
000
ASUS46 KPQR 242210
RWROR

OREGON REGIONAL WEATHER ROUNDUP
NATIONAL WEATHER SERVICE PORTLAND OR
300 PM PDT MON JUL 24 2017

NOTE: "FAIR" INDICATES FEW OR NO CLOUDS BELOW 12,000 FEET WITH
NO SIGNIFICANT WEATHER AND/OR OBSTRUCTIONS TO VISIBILITY.

ORZ001>013-242300-
NORTHWEST OREGON


CITY           SKY/WX    TMP DP  RH WIND       PRES   REMARKS
ASTORIA        SUNNY     70  55  59 W15       29.99F
NEWPORT        SUNNY     63  55  77 N20G29    30.01F
PORTLAND       MOSUNNY   86  55  34 NW13      29.89F
VANCOUVER WA   SUNNY     85  54  34 NW13G21   29.89F
SCAPPOOSE      SUNNY     86  52  30 N13G23    29.89F
HILLSBORO      SUNNY     87  54  32 VRB6G17   29.89F
AURORA         SUNNY     88  54  31 N8        29.90F
MCMINNVILLE    SUNNY     88  51  28 NE13      29.90F
SALEM          SUNNY     87  51  28 N12       29.89F
CORVALLIS      SUNNY     88  45  22 N6        29.91F
EUGENE         MOSUNNY   83  49  30 NE13G23   29.90F
$$

ORZ021-028-242300-
SOUTHWEST OREGON


CITY           SKY/WX    TMP DP  RH WIND       PRES   REMARKS
NORTH BEND     MOSUNNY   64  55  72 N30       29.96F
BROOKINGS      SUNNY     64  55  72 VRB6      29.84F
ROSEBURG       SUNNY     87  47  24 N13G20    29.87F
SEXTON SUMMIT  SUNNY     78  56  46 VRB5      30.00F
GRANTS PASS    FAIR      91  55  29 NW12      29.86F
MEDFORD        MOSUNNY   94  57  28 NW8       29.81F HX  92
$$

ORZ014>016-041-242300-
COLUMBIA GORGE


CITY           SKY/WX    TMP DP  RH WIND       PRES   REMARKS
TROUTDALE      SUNNY     87  56  34 W6        29.88F
HOOD RIVER     SUNNY     90  45  20 NW5       29.88F
THE DALLES     SUNNY     94  40  15 NE6       29.84F HX  90
$$

ORZ029>031-041-044-049-050-061>064-502-503-505>511-242300-
EASTERN OREGON


CITY           SKY/WX    TMP DP  RH WIND       PRES   REMARKS
MADRAS         SUNNY     88  34  14 NW13      29.95F
REDMOND        SUNNY     89  38  16 N14       29.95F
BEND           SUNNY     88  43  20 NW13G18   29.97F
PRINEVILLE     SUNNY     90  41  18 NW15      29.95F
KLAMATH FALLS  SUNNY     90  43  19 VRB5      29.95F
LAKEVIEW       MOSUNNY   84  50  30 E10       30.01F
HERMISTON      SUNNY     91  35  13 NE12      29.88F
PENDLETON      SUNNY     89  33  13 VRB7      29.91F
JOHN DAY       PTSUNNY   88  45  22 CALM      29.95S
MEACHAM        SUNNY     80  32  17 N7        30.03F
LA GRANDE      SUNNY     90  45  20 N10       29.92F
BAKER CITY     MOSUNNY   86  42  21 NW12      29.94F
BURNS          CLOUDY    91  40  16 SE14      29.97F
ROME             N/A     88  38  17 W20G30    29.95F
ONTARIO        CLOUDY    98  46  17 VRB5      29.83F HX  94
$$




USA.gov is the U.S. government's official web portal to all federal, state and local government web resources and services.